DW8913 Weather Reports


Display with metric or nautical units.
time (UTC)temp
F
wind
direction
speed
MPH
gust
MPH
rain 1hr
in
rain 24hr
in
rain mn
in
humidity
%
barometer
mb
20260507010042 62 174 0.0 1.0 0.00 0.00 0.00 85 1008.9
20260507004528 62 118 0.0 0.0 0.00 0.00 0.00 84 1008.7
20260507003054 63 141 0.0 1.0 0.00 0.00 0.00 83 1008.4
20260507001526 63 139 0.0 1.0 0.00 0.00 0.00 82 1008.3
20260507000109 63 143 0.0 1.0 0.00 0.00 0.00 82 1008.3
20260506234538 64 172 0.0 2.0 0.00 0.00 0.00 81 1008.5
20260506233001 65 112 0.0 1.0 0.00 0.00 0.00 79 1008.3
20260506231555 65 171 0.0 3.0 0.00 0.00 0.00 79 1008.4
20260506230013 64 107 0.0 3.0 0.00 0.00 0.00 80 1008.5
20260506224600 65 138 0.0 4.0 0.00 0.00 0.00 79 1008.2
20260506223045 67 52 0.0 3.0 0.00 0.00 0.00 76 1008.1
20260506221502 67 72 0.0 6.0 0.00 0.00 0.00 76 1008.3
20260506220045 67 148 2.0 8.0 0.00 0.00 0.00 76 1008.3
20260506214514 67 92 2.0 7.0 0.00 0.00 0.00 75 1008.2
20260506213127 67 93 2.0 8.0 0.00 0.00 0.00 75 1007.8
20260506211533 68 71 1.0 7.0 0.00 0.00 0.00 75 1007.9
20260506210110 68 123 2.0 6.0 0.00 0.00 0.00 75 1007.7
20260506204545 67 72 2.0 7.0 0.00 0.00 0.00 76 1007.6
20260506203014 66 148 2.0 9.0 0.00 0.00 0.00 76 1007.7
20260506201559 66 105 1.0 6.0 0.00 0.00 0.00 76 1007.7
20260506200016 67 94 3.0 9.0 0.00 0.00 0.00 76 1007.9
20260506194619 67 78 3.0 9.0 0.00 0.00 0.00 76 1007.9
20260506193029 67 129 2.0 8.0 0.00 0.00 0.00 77 1008.6
20260506191502 67 98 3.0 9.0 0.00 0.00 0.00 77 1008.6
20260506190045 66 141 1.0 8.0 0.00 0.00 0.00 78 1008.7
20260506184519 65 110 3.0 9.0 0.00 0.00 0.00 79 1008.9
20260506183105 63 104 2.0 9.0 0.00 0.00 0.00 82 1009.1
20260506181538 61 63 2.0 9.0 0.00 0.00 0.00 83 1009.3
20260506180010 62 146 3.0 10.0 0.00 0.00 0.00 83 1009.3
20260506174545 62 155 1.0 9.0 0.00 0.00 0.00 84 1009.5
20260506173012 62 204 2.0 8.0 0.00 0.00 0.00 83 1009.4
20260506171554 62 128 4.0 9.0 0.00 0.00 0.00 81 1009.8
20260506170018 62 124 3.0 9.0 0.00 0.00 0.00 81 1010.0
20260506164603 62 94 4.0 10.0 0.00 0.00 0.00 81 1010.5
20260506163041 62 75 3.0 8.0 0.00 0.00 0.00 81 1010.8
20260506161514 62 88 3.0 6.0 0.00 0.00 0.00 81 1010.7
20260506160023 62 58 2.0 9.0 0.00 0.00 0.00 81 1010.9
20260506154522 62 196 3.0 11.0 0.00 0.00 0.00 81 1011.1
20260506153021 63 98 3.0 11.0 0.00 0.00 0.00 78 1011.3
20260506151502 64 70 3.0 10.0 0.00 0.00 0.00 77 1011.1
20260506150050 65 91 3.0 9.0 0.00 0.00 0.00 76 1011.1
20260506144519 65 98 3.0 11.0 0.00 0.00 0.00 77 1011.3
20260506143109 65 162 4.0 10.0 0.00 0.00 0.00 76 1011.4
20260506141537 64 56 2.0 8.0 0.00 0.00 0.00 78 1011.4
20260506140009 64 63 3.0 9.0 0.00 0.00 0.00 77 1011.3
20260506134550 63 196 3.0 9.0 0.00 0.00 0.00 79 1011.5
20260506133024 63 160 3.0 8.0 0.00 0.00 0.00 79 1011.6
20260506131603 63 109 2.0 9.0 0.00 0.00 0.00 79 1011.6
20260506130034 64 112 3.0 10.0 0.00 0.00 0.00 79 1011.9
20260506124609 64 152 4.0 12.0 0.00 0.00 0.00 78 1011.5
20260506123035 62 86 3.0 10.0 0.00 0.00 0.00 81 1011.6
20260506121513 60 130 4.0 9.0 0.00 0.00 0.00 85 1011.5
20260506120048 60 59 2.0 12.0 0.00 0.00 0.00 85 1011.3
20260506114517 60 15 2.0 7.0 0.00 0.00 0.00 88 1011.4
20260506113059 59 114 3.0 8.0 0.00 0.00 0.00 88 1011.4
20260506111528 58 163 2.0 7.0 0.00 0.00 0.00 89 1011.3
20260506110108 58 79 2.0 9.0 0.00 0.00 0.00 90 1011.6
20260506104539 58 176 4.0 10.0 0.00 0.00 0.00 90 1011.6
20260506103010 57 55 3.0 8.0 0.00 0.00 0.00 90 1011.5
20260506101538 57 141 2.0 8.0 0.00 0.00 0.00 90 1011.3
20260506100013 57 69 3.0 11.0 0.00 0.00 0.00 90 1011.3
20260506094604 57 111 3.0 8.0 0.00 0.00 0.00 90 1011.3
20260506093023 57 117 2.0 9.0 0.00 0.00 0.00 90 1011.3
20260506091608 57 143 3.0 9.0 0.00 0.00 0.00 90 1011.4
20260506090046 57 98 3.0 14.0 0.00 0.00 0.00 90 1011.5
20260506084502 57 127 3.0 10.0 0.00 0.00 0.00 90 1011.7
20260506083043 57 77 3.0 9.0 0.00 0.00 0.00 90 1011.8
20260506081512 57 152 3.0 9.0 0.00 0.00 0.00 89 1011.7
20260506073106 58 134 3.0 10.0 0.00 0.00 0.00 89 1011.6
20260506071539 58 87 4.0 10.0 0.00 0.00 0.00 88 1011.6
20260506061601 58 120 4.0 9.0 0.00 0.00 0.00 87 1011.7
20260506044521 59 73 4.0 12.0 0.00 0.00 0.00 83 1012.4
20260506043104 59 16 3.0 10.0 0.00 0.00 0.00 83 1012.4
20260506041526 59 68 3.0 11.0 0.00 0.00 0.00 83 1012.3
20260506040108 59 141 5.0 11.0 0.00 0.00 0.00 83 1012.3
20260506034541 59 143 4.0 12.0 0.00 0.00 0.00 82 1012.3
20260506033006 59 169 6.0 12.0 0.00 0.00 0.00 82 1012.5
20260506031551 59 151 5.0 11.0 0.00 0.00 0.00 82 1012.3
20260506030020 59 113 4.0 11.0 0.00 0.00 0.00 81 1012.4
20260506024600 60 74 5.0 13.0 0.00 0.00 0.00 81 1012.6
20260506023026 60 51 3.0 10.0 0.00 0.00 0.00 80 1012.5
20260506021609 60 64 5.0 11.0 0.00 0.00 0.00 80 1012.6
20260506020039 60 179 4.0 12.0 0.00 0.00 0.00 80 1012.6
20260506014507 60 87 5.0 12.0 0.00 0.00 0.00 80 1012.3
20260506013054 60 72 3.0 12.0 0.00 0.00 0.00 80 1012.3
20260506011508 60 51 5.0 12.0 0.00 0.00 0.00 80 1012.2